Location: Gebiz
(37.1042°N, 30.9378°E)
Time: 12:45:11
(UTC+00:00)

Daily predictions for brighter satellites

Satellite Brightness Start Highest point End
(mag) Time Altitude Azimuth Time Altitude Azimuth Time Altitude Azimuth
Cosmos 773 Rocket 4.0 15:00:27 10° SSW 15:05:41 80° ESE 15:11:00 10° NNE
ERS-2 3.4 15:03:51 10° NE 15:06:45 22° E 15:09:37 10° SSE
Lacrosse 5 rocket 3.4 15:07:37 10° WNW 15:10:04 17° NW 15:12:30 10° N
SL-16 R/B 3.0 15:08:29 10° SW 15:14:00 54° WNW 15:19:33 10° NNE
YAOGAN 6 2.6 15:10:53 10° S 15:14:31 87° WSW 15:18:08 10° NNW
Cosmos 2297 3.7 15:09:13 10° NNW 15:14:55 75° ENE 15:20:37 10° SSE
AQUARIUS 4.3 15:11:51 10° SSE 15:16:12 53° ENE 15:20:35 10° N
Cosmos 1606 4.3 15:12:50 10° SSW 15:16:28 37° W 15:20:06 10° N
USA 215 3.8 15:12:43 10° ENE 15:18:52 42° SE 15:24:58 10° SSW
USA 238 DEB 4.4 15:13:59 10° S 15:19:38 32° ESE 15:25:26 10° NE
USA 238 4.4 15:14:06 10° S 15:19:44 32° ESE 15:25:31 10° NE
SMAP 3.0 15:19:54 10° SSE 15:24:32 78° ENE 15:29:12 10° N
CZ-4B R/B 1.5 15:24:37 10° NNE 15:27:40 48° E 15:30:46 10° S
Cosmos 1151 Rocket 3.4 15:28:43 10° SSW 15:32:57 66° W 15:37:12 10° N
Cosmos 1500 4.5 15:30:48 10° NNE 15:33:40 20° ENE 15:36:32 10° SE
Cosmos 482 Debris 4.3 15:33:08 10° NNW 15:34:16 17° NNE 15:34:16 17° NNE
Cosmos 864 Rocket 4.4 15:30:44 10° N 15:37:01 73° E 15:43:13 10° SSE
CZ-2C R/B 4.1 15:34:15 10° ESE 15:37:55 21° ENE 15:41:29 10° NNE
Cosmos 1470 Rocket 3.5 15:34:11 10° N 15:38:27 58° E 15:42:41 10° SSE
USA 281 4.2 15:34:37 10° ESE 15:39:33 23° NE 15:44:30 10° N
SL-8 Rocket 4.1 15:33:55 10° N 15:40:11 82° W 15:46:29 10° S
Cosmos 1515 Rocket 3.5 15:36:18 10° S 15:40:38 70° E 15:45:02 10° NNE
Nadezhda 3 Rocket 4.4 15:36:24 10° SSE 15:42:15 41° E 15:48:08 10° NNE
SWAS 4.4 15:39:16 10° SSW 15:43:31 80° ESE 15:47:41 11° NNE
Meteor 2-6 Rocket 4.4 15:42:30 10° SSE 15:47:51 47° E 15:53:06 10° NNE
CORIOLIS 4.4 15:43:23 10° S 15:48:47 75° WSW 15:54:14 10° NNW
Cosmos 1238 Rocket 4.2 15:45:22 10° NNE 15:48:56 25° E 15:53:03 10° SE
COSMO-SKYMED 1 2.6 15:47:06 10° NNE 15:51:24 60° E 15:55:41 10° S
Cosmos 2285 Rocket 4.3 15:45:48 10° NNW 15:52:09 70° WSW 15:58:25 10° S
Cosmos 2228 Rocket 3.4 15:48:36 10° SSE 15:52:54 43° E 15:56:56 11° NNE
H-2A R/B 3.5 15:54:40 18° NE 15:54:40 18° NE 15:56:55 10° NNE
USA 81 4.5 15:48:23 10° N 15:53:37 66° W 15:58:50 10° S
Cosmos 1821 Rocket 4.3 15:49:56 10° N 15:55:53 44° ENE 16:01:53 10° SSE
X-37B 2.3 15:53:35 10° WNW 15:56:12 23° NNW 15:57:12 20° NNE
BREEZE-M TANK 3.5 15:52:57 10° WNW 15:56:59 44° SW 16:00:17 10° SE
Cosmos 1689 Rocket 2.4 15:57:04 39° ENE 15:57:28 41° E 16:00:16 10° S
Meteor 1-4 Rocket 3.9 15:54:19 10° SSW 15:57:43 39° WNW 16:01:05 10° N
SAR-Lupe-4 3.5 15:54:54 15° NNE 15:57:46 62° ESE 16:01:19 10° S
Cosmos 1812 2.8 15:55:31 10° SSE 15:59:12 48° E 16:01:27 21° NNE
Cosmos 1939 Rocket 2.7 15:56:33 10° SSE 16:00:22 65° ENE 16:04:16 10° N
IRS-1C Rocket 4.1 15:56:27 10° SSE 16:01:34 55° ENE 16:06:43 10° N
Cosmos 2084 4.2 15:58:19 10° S 16:02:07 33° ESE 16:02:58 30° E
CZ-4 R/B 3.4 16:05:25 14° NNE 16:05:25 14° NNE 16:06:04 10° N
NOAA 11 4.4 15:59:09 10° S 16:04:32 72° WSW 16:09:58 10° NNW
CZ-4B R/B 4.4 16:00:46 10° S 16:05:47 42° W 16:10:48 10° NNW
Cosmos 44 Rocket 4.4 16:02:00 10° N 16:06:20 26° NE 16:06:21 26° NE
Cosmos 1680 Rocket 3.7 16:01:46 10° S 16:06:51 51° ESE 16:09:56 23° NE
Cosmos 1933 Rocket 3.5 16:04:04 10° N 16:08:33 87° E 16:12:59 10° S
PSLV R/B 3.8 16:05:56 21° NNE 16:08:34 62° ESE 16:12:33 10° S
Cosmos 1603 3.9 16:03:54 10° SSW 16:09:31 73° WNW 16:15:01 11° NNE
Lacrosse 4 Rocket 2.0 16:06:57 10° S 16:10:37 35° ESE 16:10:37 35° ESE
CZ-3B R/B 1.9 16:07:41 10° WSW 16:11:03 38° NW 16:11:29 33° NNW
SL-24 R/B 3.6 16:09:36 14° N 16:12:42 84° WNW 16:16:21 10° SSW
Cosmos 1943 3.3 16:07:18 10° SSW 16:12:57 78° WNW 16:18:07 13° NNE
SAR-Lupe-1 4.1 16:12:16 19° N 16:14:43 79° WNW 16:18:18 10° SSW
Sakura Rocket 4.4 16:13:14 10° SW 16:16:18 24° S 16:17:39 20° SE
CENTAUR R/B 2.4 16:12:08 10° SSW 16:17:35 57° ESE 16:20:30 31° NE
CZ-2D R/B 3.0 16:14:01 10° SSE 16:17:49 73° ENE 16:21:39 10° N
Cosmos 2369 Rocket 2.1 16:14:06 10° NNW 16:19:48 90° WSW 16:25:26 10° SSE
Cosmos 1943 Rocket 3.0 16:15:52 10° NNW 16:21:14 51° WSW 16:26:37 10° S
Meteor 1-5 Rocket 4.1 16:16:07 10° N 16:21:59 71° E 16:27:38 10° SSE
Okean O Rocket 3.9 16:18:53 10° SSW 16:22:30 26° W 16:26:10 10° NW
Okean-O 2.6 16:19:32 10° SSE 16:23:52 56° ENE 16:28:12 10° N
Cosmos 1461 3.0 16:20:58 10° SSW 16:25:27 65° ESE 16:26:19 53° ENE
NOSS 3-2 (C) 3.2 16:20:06 10° SSW 16:25:28 64° ESE 16:27:40 38° NE
Cosmos 2112 Rocket 3.9 16:22:09 10° S 16:27:22 69° ESE 16:29:29 36° NNE
Meteor 1-27 Rocket 3.6 16:30:55 10° S 16:36:18 61° E 16:37:41 47° NE
Meteor 1-10 Rocket 4.4 16:35:05 10° SSW 16:40:43 71° W 16:46:16 10° N
Cosmos 1437 Rocket 3.5 16:36:58 10° S 16:39:40 42° S 16:39:40 42° S
Cosmos 1339 Rocket 4.5 16:40:38 10° SSE 16:46:27 54° E 16:46:27 54° E
USA 276 4.4 16:44:40 10° SW 16:45:59 22° SW 16:45:59 22° SW
Gblst 52 Del rocket 4.2 16:42:45 10° SW 16:49:16 89° SE 16:50:20 63° NE
NOSS 3-2 (A) 4.0 16:45:39 10° SW 16:51:00 48° NW 16:54:01 27° N
Hubble Space Telescope 3.1 16:50:06 10° SSW 16:51:45 16° S 16:51:45 16° S
DMSP B5D1-3 4.4 16:52:50 62° N 16:53:45 86° WNW 16:58:52 10° SSW
USA 215 3.8 16:59:21 34° NNE 17:01:53 52° NW 17:08:10 10° WSW
Cosmos 1535 Rocket 4.2 16:57:13 10° N 17:03:21 81° E 17:09:28 10° S
USA 238 DEB 4.5 17:04:03 10° WSW 17:10:17 45° NW 17:13:06 30° N
USA 238 4.4 17:04:07 10° WSW 17:10:22 45° NW 17:13:10 30° N
Cosmos 1656 Rocket 4.2 17:09:44 10° NNW 17:15:11 55° WSW 17:17:20 34° SSW
CZ-2C R/B 4.2 17:12:50 10° SSW 17:17:32 38° W 17:22:05 10° NNW
USA 281 3.4 17:16:58 10° SSE 17:23:29 66° WSW 17:30:01 10° NNW
Cosmos 1934 Rocket 4.4 17:19:11 10° NNW 17:25:26 62° W 17:31:35 10° S
USA 267 4.3 17:34:11 34° NNW 17:34:11 34° NNW 17:37:59 10° NW
H-2A R/B 3.9 17:27:14 10° S 17:35:18 22° NW 17:37:16 10° NNW
CZ-4 R/B 4.4 17:34:58 10° SW 17:41:26 - NW 17:35:03 10° SW
ATLAS 3B R/B 4.2 17:35:21 10° SSW 17:37:30 22° S 17:37:30 22° S
CENTAUR R/B 4.2 18:03:44 10° W 18:07:44 25° NW 18:07:44 25° NW
